Weather History for Chester, SC

Change the Weather History Date:

Monday, October 8, 2012

  Actual Average (KUZA) Record (KUZA)
Temperature  
Mean Temperature 52 °F -  
Max Temperature 55 °F 73 °F 91 °F (2007)
Min Temperature 50 °F 52 °F 37 °F (2000)
Degree Days  
Heating Degree Days 12    
Growing Degree Days 2 (Base 50)    
Moisture  
Dew Point 48 °F    
Average Humidity 84    
Maximum Humidity 100    
Minimum Humidity 72    
Precipitation  
Precipitation 0.00 in - - ()
Sea Level Pressure  
Sea Level Pressure 30.15 in    
Wind  
Wind Speed 9 mph (NNE)    
Max Wind Speed 15 mph    
Max Gust Speed 20 mph    
Visibility 8 miles    
Events Thunderstorm    
Averages and records for this station are not official NWS values.
T = Trace of Precipitation, MM = Missing Value Source: NWS Daily Summary

Daily Weather History Graph

Daily Weather History Graph

Search for Another Location

Airport:

Trip Planner

Search our weather history database for the weather conditions in past years. The results will help you decide how hot, cold, wet, or windy it might be!

Date:

Astronomy

Oct. 08, 2012 Rise Set
Actual Time 7:25 AM EDT 6:58 PM EDT
Civil Twilight 6:59 AM EDT 7:23 PM EDT
Nautical Twilight 6:30 AM EDT 7:52 PM EDT
Astronomical Twilight 6:01 AM EDT 8:22 PM EDT
Moon 12:19 AM EDT (10/8) 2:32 PM EDT (10/8)
Length of Visible Light 12h 23m
Length of Day
11h 33m
Waning Gibbous, 46% of the Moon is Illuminated
Oct 8
Waning Gibbous
Oct 15
New
Oct 21
First Quarter
Oct 29
Full
Nov 6
Last Quarter

Hourly Weather History & Observations

Time (EDT) Temp. Dew Point Humidity Pressure Visibility Wind Dir Wind Speed Gust Speed Precip Events Conditions
12:15 AM 55.4 °F 50.0 °F 82% 30.14 in 10.0 mi NE 9.2 mph - N/A   Overcast
12:35 AM 55.4 °F 50.0 °F 82% 30.14 in 10.0 mi NE 10.4 mph - N/A   Overcast
12:55 AM 55.4 °F 50.0 °F 82% 30.14 in 10.0 mi NNE 9.2 mph - N/A   Overcast
1:15 AM 55.4 °F 50.0 °F 82% 30.14 in 10.0 mi NE 9.2 mph 17.3 mph N/A   Overcast
1:35 AM 55.4 °F 50.0 °F 82% 30.14 in 10.0 mi NE 12.7 mph 17.3 mph N/A   Overcast
1:55 AM 55.4 °F 50.0 °F 82% 30.14 in 10.0 mi NE 9.2 mph - N/A   Overcast
2:15 AM 55.4 °F 50.0 °F 82% 30.14 in 7.0 mi NE 9.2 mph - N/A   Overcast
2:35 AM 55.4 °F 50.0 °F 82% 30.14 in 7.0 mi NE 9.2 mph - N/A   Overcast
2:55 AM 55.4 °F 50.0 °F 82% 30.14 in 10.0 mi NE 8.1 mph - N/A   Overcast
3:15 AM 55.4 °F 50.0 °F 82% 30.14 in 10.0 mi NE 9.2 mph - N/A   Overcast
3:35 AM 53.6 °F 50.0 °F 88% 30.13 in 7.0 mi NE 6.9 mph - N/A   Overcast
3:55 AM 55.4 °F 50.0 °F 82% 30.13 in 7.0 mi NE 6.9 mph - N/A   Overcast
4:15 AM 53.6 °F 50.0 °F 88% 30.12 in 7.0 mi ENE 5.8 mph - N/A   Overcast
4:35 AM 53.6 °F 50.0 °F 88% 30.12 in 10.0 mi NE 8.1 mph - N/A   Overcast
4:55 AM 53.6 °F 50.0 °F 88% 30.13 in 7.0 mi NNE 9.2 mph - N/A   Overcast
5:15 AM 53.6 °F 48.2 °F 82% 30.14 in 10.0 mi NNE 9.2 mph - N/A   Overcast
5:35 AM 53.6 °F 48.2 °F 82% 30.14 in 10.0 mi NNE 9.2 mph - N/A   Overcast
5:55 AM 53.6 °F 48.2 °F 82% 30.14 in 10.0 mi NNE 10.4 mph 17.3 mph N/A   Overcast
6:15 AM 53.6 °F 48.2 °F 82% 30.15 in 10.0 mi NNE 9.2 mph - N/A   Overcast
6:35 AM 53.6 °F 48.2 °F 82% 30.15 in 7.0 mi NNE 12.7 mph 16.1 mph N/A   Overcast
6:55 AM 53.6 °F 46.4 °F 77% 30.16 in 10.0 mi NNE 9.2 mph - N/A   Overcast
7:15 AM 53.6 °F 46.4 °F 77% 30.17 in 10.0 mi NNE 10.4 mph 17.3 mph N/A   Overcast
7:35 AM 53.6 °F 46.4 °F 77% 30.16 in 10.0 mi NE 15.0 mph 19.6 mph N/A   Overcast
7:55 AM 53.6 °F 46.4 °F 77% 30.16 in 7.0 mi NE 10.4 mph - N/A   Overcast
8:15 AM 53.6 °F 44.6 °F 72% 30.17 in 7.0 mi NNE 8.1 mph 18.4 mph N/A   Overcast
8:35 AM 53.6 °F 44.6 °F 72% 30.17 in 7.0 mi NNE 9.2 mph 18.4 mph N/A   Overcast
8:55 AM 53.6 °F 44.6 °F 72% 30.17 in 7.0 mi NNE 10.4 mph 16.1 mph N/A   Overcast
9:15 AM 53.6 °F 44.6 °F 72% 30.17 in 10.0 mi NE 11.5 mph - N/A   Overcast
9:35 AM 53.6 °F 46.4 °F 77% 30.18 in 7.0 mi NE 8.1 mph 16.1 mph N/A   Overcast
9:55 AM 53.6 °F 46.4 °F 77% 30.17 in 7.0 mi NE 12.7 mph - N/A   Overcast
10:15 AM 53.6 °F 46.4 °F 77% 30.19 in 7.0 mi NE 8.1 mph - N/A   Overcast
10:35 AM 53.6 °F 46.4 °F 77% 30.20 in 7.0 mi NE 6.9 mph - N/A   Overcast
10:55 AM 53.6 °F 46.4 °F 77% 30.19 in 7.0 mi NE 9.2 mph - N/A   Overcast
11:15 AM 53.6 °F 46.4 °F 77% 30.19 in 7.0 mi NNE 8.1 mph - N/A   Overcast
11:35 AM 53.6 °F 46.4 °F 77% 30.19 in 7.0 mi NNE 8.1 mph - N/A   Overcast
11:55 AM 53.6 °F 48.2 °F 82% 30.19 in 7.0 mi NNE 6.9 mph - N/A   Overcast
12:15 PM 55.4 °F 46.4 °F 72% 30.18 in 7.0 mi NE 8.1 mph - N/A   Overcast
12:35 PM 55.4 °F 46.4 °F 72% 30.19 in 7.0 mi NE 10.4 mph - N/A   Overcast
12:55 PM 55.4 °F 48.2 °F 77% 30.18 in 7.0 mi NNE 9.2 mph - N/A   Overcast
1:15 PM 53.6 °F 48.2 °F 82% 30.18 in 7.0 mi North 8.1 mph - N/A   Overcast
1:55 PM 55.4 °F 48.2 °F 77% 30.15 in 7.0 mi NE 10.4 mph - N/A   Overcast
2:15 PM 55.4 °F 48.2 °F 77% 30.14 in 7.0 mi NNE 9.2 mph - N/A   Overcast
2:35 PM 55.4 °F 48.2 °F 77% 30.14 in 7.0 mi North 8.1 mph - N/A   Overcast
2:55 PM 55.4 °F 50.0 °F 82% 30.13 in 7.0 mi North 10.4 mph - N/A   Overcast
3:15 PM 53.6 °F 50.0 °F 88% 30.14 in 7.0 mi North 9.2 mph - N/A   Overcast
3:35 PM 53.6 °F 50.0 °F 88% 30.13 in 4.0 mi NNE 10.4 mph - N/A   Haze
3:55 PM 53.6 °F 50.0 °F 88% 30.13 in 7.0 mi North 11.5 mph - N/A   Overcast
4:15 PM 53.6 °F 50.0 °F 88% 30.13 in 7.0 mi North 10.4 mph - N/A   Overcast
4:35 PM 53.6 °F 50.0 °F 88% 30.13 in 5.0 mi North 12.7 mph 17.3 mph N/A   Overcast
4:55 PM 51.8 °F 50.0 °F 94% 30.13 in 5.0 mi NNE 13.8 mph - N/A   Overcast
5:15 PM 51.8 °F 50.0 °F 94% 30.14 in 7.0 mi NNE 8.1 mph - N/A   Overcast
5:35 PM 51.8 °F 50.0 °F 94% 30.14 in 7.0 mi NNE 10.4 mph - N/A   Overcast
5:55 PM 51.8 °F 50.0 °F 94% 30.14 in 7.0 mi NNE 10.4 mph - N/A   Overcast
6:15 PM 51.8 °F 48.2 °F 88% 30.14 in 10.0 mi NE 9.2 mph - N/A   Overcast
6:35 PM 51.8 °F 48.2 °F 88% 30.14 in 7.0 mi NE 8.1 mph 18.4 mph N/A   Overcast
6:55 PM 51.8 °F 48.2 °F 88% 30.14 in 7.0 mi NE 6.9 mph - N/A Thunderstorm Overcast
7:15 PM 51.8 °F 48.2 °F 88% 30.14 in 7.0 mi NNE 9.2 mph - N/A   Overcast
7:35 PM 51.8 °F 48.2 °F 88% 30.15 in 7.0 mi NNE 8.1 mph - N/A   Overcast
7:55 PM 50.0 °F 48.2 °F 94% 30.16 in 7.0 mi NNE 10.4 mph - N/A Thunderstorm Overcast
8:35 PM 50.0 °F 48.2 °F 94% 30.16 in 7.0 mi NNE 6.9 mph - N/A   Overcast
9:15 PM 50.0 °F 50.0 °F 100% 30.17 in 7.0 mi NNE 8.1 mph - N/A   Overcast
10:15 PM 50.0 °F 50.0 °F 100% 30.17 in 7.0 mi NNE 4.6 mph - N/A   Overcast
10:35 PM 50.0 °F 50.0 °F 100% 30.17 in 7.0 mi North 8.1 mph - N/A   Overcast
10:55 PM 50.0 °F 50.0 °F 100% 30.17 in 7.0 mi North 8.1 mph - N/A   Overcast
11:15 PM 50.0 °F 50.0 °F 100% 30.18 in 7.0 mi North 8.1 mph - N/A   Overcast
11:55 PM 50.0 °F 48.2 °F 94% 30.17 in 7.0 mi North 6.9 mph - N/A   Overcast